Wind_Speed
13 13 8 5 7 9 10 12 15 11 8 9 10 10 8 7 6 4 4 4 4 4 5 6 6 6 6 6 8 7 7 8 9 8 8 7 7 7 5 4 4 4 3 3 3 2 2 1 1 2 1 1 1 1 1 2 3 3 4 4 4 3 5 7 9 9 8 8 8 7 7 7 7 6 7 6 6 6 5 4 4 3 3 2 2
10 10 10 8 8 8 8 8 12 13 11 8 7 8 8 8 8 6 5 5 6 7 7 7 6 7 8 8 8 8 8 8 9 8 8 8 7 6 4 3 4 5 4 3 3 3 2 2 1 1 1 1 1 1 1 2 2 3 4 4 4 4 6 8 8 8 8 8 8 7 7 7 7 6 6 6 6 6 5 4 4 4 3 2 2
10 11 9 8 9 8 7 7 8 12 13 9 7 7 5 5 8 10 9 8 9 9 8 7 6 6 7 8 9 8 8 8 7 7 7 7 6 5 3 2 3 4 3 3 3 3 3 1 1 2 2 1 2 2 2 2 2 3 4 4 5 6 8 8 8 8 8 7 7 7 7 7 6 6 6 6 6 6 5 5 5 4 3 2 2
9 10 8 9 11 9 7 7 8 10 11 9 8 8 6 4 4 8 11 10 9 7 5 6 6 4 6 7 8 8 7 7 6 6 6 6 6 4 3 2 2 3 3 3 3 3 3 3 3 3 2 2 2 2 2 3 3 4 4 5 6 8 9 9 8 8 7 7 6 5 6 6 6 5 5 5 5 6 6 6 6 5 4 3 2
9 9 8 9 10 9 8 8 8 10 11 8 6 7 6 4 4 4 9 9 8 7 5 5 5 5 6 6 6 6 6 6 6 5 5 5 5 5 3 2 3 4 4 4 4 4 4 4 4 4 4 3 3 4 4 4 4 5 6 6 8 9 9 9 8 7 7 6 5 4 5 5 5 4 4 4 5 5 6 6 6 6 5 4 3
8 8 7 8 8 7 7 9 8 9 9 6 5 6 5 3 3 3 6 11 10 7 7 6 5 5 5 5 5 4 4 5 5 4 4 4 4 4 3 2 3 4 4 4 4 5 5 5 5 5 5 5 5 5 5 6 6 7 8 8 9 9 9 8 7 7 6 5 5 4 5 5 4 4 3 4 4 4 5 6 6 6 6 5 5
7 7 7 6 7 6 5 6 6 8 8 5 4 4 4 4 3 3 5 9 12 9 8 7 6 6 5 4 3 3 3 4 3 3 4 4 3 3 3 2 3 4 4 4 5 5 5 6 6 6 6 6 6 6 6 7 8 9 10 10 10 9 8 7 7 6 5 4 4 3 4 3 3 3 3 3 3 3 4 5 6 6 6 6 6
6 6 5 5 5 4 3 4 5 7 5 4 4 4 3 5 5 5 4 6 12 10 8 7 6 5 5 4 3 3 4 4 4 4 4 2 3 4 3 3 4 4 4 4 5 6 6 6 7 7 7 8 7 8 8 8 9 10 10 10 10 10 9 7 6 5 4 3 2 2 3 2 2 3 2 2 2 2 3 4 5 5 6 6 6
4 3 3 4 4 3 2 4 4 5 3 3 4 6 5 7 8 8 7 6 10 10 8 7 6 6 5 4 3 4 4 5 6 7 7 3 3 5 5 5 5 5 5 5 5 6 6 6 7 8 8 9 9 9 9 9 9 9 9 10 9 9 8 7 5 4 3 2 1 2 2 0 2 3 2 1 1 1 2 3 4 5 5 6 6
2 2 3 3 3 1 2 3 2 2 3 3 3 6 7 9 11 11 11 10 10 10 9 7 7 7 6 5 4 5 5 6 6 6 7 5 4 5 5 5 6 5 5 5 5 6 7 8 8 8 8 9 9 9 9 8 8 8 9 9 8 8 7 5 4 3 3 2 2 2 2 1 0 1 1 1 0 1 1 2 3 4 5 5 6
3 3 2 2 1 1 2 2 1 1 2 1 5 7 8 10 12 13 12 10 10 10 10 8 7 7 6 5 5 5 7 6 6 6 6 5 4 6 5 5 6 5 5 5 6 6 7 8 9 8 8 8 8 8 8 8 8 8 8 7 7 6 5 5 4 3 3 3 3 2 1 1 0 1 0 0 1 1 0 1 2 3 4 5 5
3 3 3 1 0 0 2 1 2 1 2 4 7 9 10 11 12 12 11 10 10 10 10 10 8 6 6 6 6 7 8 7 7 6 5 4 4 5 5 5 5 5 6 5 5 5 6 8 9 9 8 8 7 7 7 7 8 8 7 7 6 5 5 4 3 3 3 3 3 2 1 2 1 0 1 1 2 2 1 0 1 2 3 3 3
4 3 2 1 2 2 2 0 2 1 4 6 8 9 10 12 13 11 8 8 11 10 8 11 10 8 7 7 7 7 8 7 7 8 5 4 5 5 5 4 5 5 5 5 5 4 4 7 9 9 8 8 7 7 7 7 7 7 7 7 6 6 6 5 4 4 4 3 2 2 2 2 1 1 2 3 2 2 2 1 1 1 1 2 3
4 3 1 2 2 3 1 1 2 1 4 6 5 6 8 11 12 11 8 7 10 11 7 9 11 9 8 7 8 8 8 7 8 8 6 5 5 5 5 4 4 4 3 4 4 4 4 5 7 7 7 7 7 7 7 7 7 7 7 7 6 7 7 5 4 4 3 3 3 3 2 2 2 2 3 3 3 2 2 2 2 1 1 1 2
4 3 2 3 4 3 2 1 3 0 3 5 3 4 9 12 13 13 10 7 8 10 8 8 9 10 8 8 9 10 8 7 7 8 6 5 5 5 5 4 3 3 3 3 3 4 4 4 5 5 5 6 5 5 5 5 6 6 6 5 5 5 6 5 4 4 3 3 3 3 2 2 3 3 3 3 3 3 3 3 2 2 2 1 2
3 3 2 3 6 5 2 2 3 1 2 3 2 4 9 13 14 13 10 7 7 8 8 7 8 7 6 6 7 8 7 7 7 6 6 5 5 5 5 4 3 3 2 2 2 3 3 4 4 5 5 5 5 5 5 5 5 5 5 5 4 4 5 5 5 5 3 4 4 3 2 2 3 3 4 4 3 3 4 3 3 2 2 1 1
2 1 2 3 5 6 4 3 3 1 3 5 6 9 11 14 15 13 8 6 6 7 7 7 10 7 4 5 6 6 6 6 6 5 5 4 4 4 4 4 3 3 3 2 2 2 2 3 3 4 4 4 5 6 6 5 5 4 5 5 5 4 4 4 4 4 4 4 4 3 3 3 4 4 5 5 4 4 4 3 3 2 2 1 1
1 0 2 3 4 4 4 4 2 1 2 6 8 11 13 14 14 12 8 5 6 8 8 7 9 9 6 6 6 6 5 4 5 5 4 4 4 4 4 3 3 3 3 3 3 2 2 2 3 3 4 5 5 6 6 5 4 4 4 4 4 4 3 3 2 4 4 3 3 2 3 3 4 5 6 6 6 5 4 3 3 2 1 1 0
0 0 1 2 2 3 3 2 1 2 1 7 7 9 12 12 12 11 10 6 5 8 10 9 8 8 8 7 6 6 5 4 4 4 4 3 4 4 4 4 4 4 4 4 4 3 3 3 3 3 3 4 4 4 4 3 3 3 3 3 3 3 2 1 2 3 3 3 3 3 4 4 5 7 7 7 7 5 4 3 3 2 2 2 1
2 0 1 1 2 2 1 0 1 1 2 5 6 8 10 12 11 10 11 9 6 7 9 9 8 8 9 7 6 6 5 4 3 3 3 3 3 4 4 4 5 5 5 5 5 4 4 4 3 3 2 2 2 2 2 1 1 2 2 2 2 2 1 1 2 2 3 4 4 4 5 5 6 7 7 7 6 5 3 3 3 3 3 3 3
2 2 2 2 2 2 1 1 2 3 4 3 5 7 9 12 11 9 9 10 8 8 9 8 7 8 8 7 4 4 4 4 3 3 3 2 3 4 4 5 5 6 6 6 6 6 6 6 5 3 3 2 1 1 1 1 0 2 1 1 1 1 1 1 2 1 3 4 4 5 5 4 5 5 5 5 5 4 2 2 3 3 4 4 4
4 4 3 3 3 2 2 3 4 5 6 4 4 6 8 10 10 9 9 9 9 9 8 7 6 9 9 6 3 2 2 3 3 3 3 2 3 4 4 4 5 5 6 6 6 6 6 6 5 4 3 2 1 2 2 1 1 0 1 0 1 0 1 1 1 1 3 4 4 5 5 4 4 5 5 5 5 4 3 3 3 4 4 5 5
6 6 4 3 2 2 3 4 5 6 6 6 5 4 6 6 6 9 12 12 11 10 10 10 10 11 10 6 2 2 2 3 3 2 2 2 2 3 3 4 5 5 5 5 5 5 5 5 5 5 4 3 2 2 2 2 1 1 1 1 2 1 0 0 1 1 2 3 4 4 5 5 5 6 6 6 6 5 5 5 5 5 5 5 5
7 7 4 4 3 2 3 3 3 3 5 5 6 4 4 5 6 11 13 13 12 10 11 11 10 10 8 5 4 4 3 4 4 3 2 2 2 2 1 2 4 5 5 5 4 4 4 4 5 5 5 5 5 4 3 2 2 1 2 2 2 1 1 1 1 1 3 4 3 5 6 6 7 7 8 7 7 7 7 7 7 6 5 5 5
6 6 5 5 4 3 2 2 2 2 4 5 6 5 5 7 9 12 12 10 10 10 10 10 9 8 7 6 5 5 4 5 5 4 3 3 2 2 2 3 4 5 5 6 6 5 5 5 6 6 6 6 6 5 5 4 3 2 2 3 3 3 3 3 3 5 5 3 4 5 6 7 7 7 8 8 7 7 7 7 7 7 6 5 5
5 6 6 5 4 3 1 1 2 2 4 5 5 6 7 8 7 9 11 10 10 10 9 10 9 8 7 6 6 6 6 7 6 6 5 4 4 4 5 6 5 4 5 6 6 7 7 6 7 7 6 6 6 6 6 5 4 3 3 3 3 4 5 4 5 8 5 6 6 6 6 7 7 6 7 7 8 7 6 5 6 6 6 5 5
5 6 6 5 4 3 2 2 2 3 5 5 6 7 7 7 5 8 11 11 11 10 9 8 9 9 8 8 8 8 8 8 7 7 6 6 5 5 6 6 5 5 5 5 5 5 6 6 6 6 5 5 5 6 6 6 5 5 5 4 4 5 6 6 8 9 8 7 7 8 8 8 7 7 7 7 7 7 6 6 5 6 6 6 6
5 6 5 4 4 3 2 2 3 5 7 5 6 6 6 7 6 8 11 11 12 10 8 8 8 9 9 9 9 8 8 8 7 7 7 7 7 7 6 6 6 5 5 5 4 4 5 5 5 5 5 5 5 5 5 6 6 6 6 6 6 6 7 7 9 10 8 7 7 8 8 8 8 8 7 7 7 8 8 7 7 6 6 6 6
5 5 5 4 4 3 2 2 2 5 7 6 6 6 7 10 8 9 11 11 11 9 7 7 7 8 9 9 8 7 7 7 7 7 7 7 8 7 7 7 7 6 6 5 5 5 5 5 5 5 6 6 5 5 6 6 7 7 7 6 6 6 7 8 9 9 8 8 7 7 7 7 8 8 7 8 8 9 9 9 8 8 8 8 8
5 5 5 5 4 2 2 3 3 5 6 6 6 6 6 9 9 9 11 11 9 7 5 5 6 6 7 8 8 7 7 7 8 8 8 8 8 8 8 7 7 7 6 6 5 5 5 5 6 6 6 7 7 6 7 7 7 7 7 7 7 7 7 7 9 9 8 8 8 7 6 6 7 7 7 7 8 8 8 8 9 9 9 10 10
5 5 5 5 4 4 5 5 5 5 5 5 6 6 8 9 11 11 10 9 7 6 4 4 5 5 6 9 10 9 9 10 10 10 9 9 8 9 9 8 8 7 7 6 6 5 5 6 6 6 7 8 8 7 8 8 8 8 8 8 8 7 7 8 8 8 8 8 8 7 6 6 7 7 7 7 7 8 8 8 8 9 10 11 11
4 5 6 6 6 6 7 7 6 5 5 5 6 6 7 8 9 10 8 6 5 5 4 3 3 3 7 9 10 10 11 11 12 12 11 11 10 9 9 8 8 9 8 8 7 6 6 6 6 6 6 7 8 8 8 9 9 9 9 9 9 8 8 8 9 8 8 8 8 8 7 7 8 8 7 7 7 7 7 8 8 9 9 10 11
5 5 6 8 9 9 9 8 7 6 5 6 5 6 7 8 8 8 8 6 5 4 4 3 3 5 8 11 11 11 12 12 12 12 12 12 11 10 9 8 8 8 9 9 9 8 8 7 6 6 6 7 7 8 8 9 9 9 10 10 10 9 9 9 9 9 9 9 8 7 7 7 8 8 8 7 7 6 7 7 7 8 7 8 8
6 6 7 9 10 10 10 9 8 7 6 5 5 8 9 9 10 10 9 8 7 6 5 5 5 7 9 11 12 12 12 12 12 11 11 11 10 10 9 8 8 8 9 9 8 9 9 9 8 7 7 7 7 7 8 9 9 10 11 11 11 10 10 10 10 10 10 10 9 7 7 7 8 9 9 8 7 5 5 6 7 7 6 6 6
6 7 8 10 11 11 10 10 9 9 8 6 6 8 9 10 9 9 8 8 7 7 7 7 8 9 10 11 12 12 12 12 12 11 11 11 10 9 9 8 8 8 8 9 9 9 9 10 10 9 8 8 8 8 8 9 9 10 12 12 12 11 11 12 12 12 11 11 9 8 9 8 9 12 11 7 4 5 5 5 7 6 6 6 5
6 7 9 11 12 13 12 12 11 10 9 7 7 8 8 8 8 8 9 9 10 10 10 10 11 11 12 12 13 13 13 13 12 11 11 10 9 9 8 8 8 8 8 9 9 9 9 10 10 10 10 10 9 8 8 9 9 10 11 12 13 13 12 13 13 13 13 12 11 11 11 10 10 11 10 7 5 6 6 6 7 7 7 6 6
6 7 9 12 14 14 14 13 12 11 9 8 8 7 7 7 8 9 10 11 12 12 12 12 13 13 13 13 13 14 13 13 13 12 11 10 9 9 9 9 9 9 9 9 9 9 9 9 10 10 10 11 10 9 9 9 10 10 10 12 14 14 14 14 14 14 15 14 14 13 12 10 9 9 9 9 7 6 7 7 8 8 8 8 8
6 7 9 11 14 14 14 13 12 10 9 8 7 6 6 7 8 9 10 10 11 12 12 12 13 13 13 13 13 13 13 13 12 12 11 10 10 10 10 10 9 9 9 9 9 9 10 10 11 11 11 12 12 12 12 10 10 11 11 11 13 13 13 13 13 13 14 14 14 13 12 11 10 9 10 10 8 7 8 8 9 9 10 10 9
5 6 8 10 13 14 14 13 11 9 8 6 5 5 6 8 9 9 10 10 11 12 12 13 14 14 14 13 13 13 12 12 12 11 11 10 9 10 10 9 10 10 9 9 8 8 9 10 10 10 11 12 13 14 15 14 13 13 13 12 12 11 12 12 12 12 13 13 13 12 12 11 11 11 10 10 9 9 9 9 10 10 10 10 10
4 6 7 9 12 13 12 11 9 8 6 5 5 6 7 7 8 9 9 10 11 12 13 14 15 16 16 16 14 13 12 12 12 12 11 10 9 9 9 9 9 9 9 9 8 8 9 10 10 10 9 10 11 11 12 14 14 12 12 12 12 11 11 11 11 12 12 12 12 12 11 11 12 12 12 11 11 10 9 10 10 10 10 11 11
4 5 7 9 11 11 11 9 8 6 5 5 5 5 6 6 7 8 9 10 11 11 12 14 15 16 17 17 16 15 13 13 12 12 11 9 8 8 8 8 8 8 8 8 8 8 8 9 9 9 8 8 8 8 9 11 11 10 10 10 10 10 11 11 11 11 12 11 12 12 11 12 12 13 13 12 11 11 10 10 9 10 10 11 12
6 6 7 9 10 10 9 8 7 5 4 4 4 4 4 5 6 8 9 9 10 10 11 13 14 15 16 17 16 16 14 13 11 10 10 9 8 8 8 8 8 8 8 8 7 7 7 8 7 7 6 7 6 7 8 8 7 9 9 9 10 10 11 12 11 11 12 12 13 13 12 12 12 13 12 12 11 11 10 10 9 9 10 11 13
7 7 8 9 9 9 8 8 6 5 4 3 2 2 3 4 6 7 8 8 9 10 11 12 14 15 15 15 15 14 13 12 11 10 9 9 9 9 9 8 8 8 8 8 8 8 8 8 7 6 5 5 5 5 6 5 5 7 8 9 10 10 12 12 11 12 13 13 13 12 12 11 11 11 11 11 11 11 10 10 10 10 10 12 14
8 8 9 10 10 9 9 8 6 4 4 2 1 1 2 4 5 6 7 8 9 10 11 13 14 14 15 14 14 14 12 11 9 9 9 9 9 9 9 9 9 9 9 9 8 8 8 8 8 7 5 4 4 5 5 4 4 6 6 7 8 9 11 12 12 13 15 14 12 11 11 11 11 11 10 11 11 11 11 11 11 11 12 14 17
10 9 10 11 11 11 10 8 6 5 4 2 0 1 2 3 4 5 7 8 10 11 12 13 14 14 15 15 14 14 13 12 10 8 7 8 8 8 8 9 9 9 9 9 9 9 9 8 7 6 5 4 4 4 4 4 4 5 6 6 7 8 10 11 12 12 13 14 12 11 11 11 10 10 11 11 12 12 12 11 12 12 12 14 16
11 10 11 12 11 11 11 9 7 5 4 3 2 1 2 2 3 5 7 9 10 11 12 13 14 15 16 16 15 15 14 13 11 9 8 7 8 8 8 8 8 8 8 8 8 8 8 9 8 6 5 4 3 3 4 4 3 3 4 6 8 10 10 10 11 12 12 13 13 13 13 13 12 11 12 12 12 12 12 11 11 11 11 12 14
12 11 11 12 12 11 11 10 8 6 5 4 3 3 2 2 2 5 7 8 10 11 12 13 15 16 17 17 17 17 15 14 13 12 10 8 8 8 8 8 8 7 7 8 8 8 8 9 8 8 6 5 4 3 3 4 3 3 4 5 7 9 10 10 11 13 13 14 14 13 13 14 13 11 12 13 12 12 11 11 11 11 11 12 13
12 12 12 13 13 11 11 11 11 9 8 6 4 4 3 2 2 4 6 8 9 11 12 14 16 17 18 19 19 18 17 15 14 13 12 10 9 9 9 9 9 8 8 8 7 7 8 8 8 8 8 7 5 4 3 3 3 4 4 4 5 6 8 9 10 12 14 15 14 12 11 12 12 11 11 12 13 12 12 12 12 13 13 13 14
12 13 13 14 15 13 12 11 11 11 10 8 6 6 5 3 3 4 6 8 9 11 13 15 17 18 19 20 20 20 18 16 14 13 12 11 9 9 9 9 9 9 9 8 7 7 7 7 7 7 7 7 6 6 4 3 4 5 4 4 6 7 7 9 11 12 15 16 13 10 11 11 11 11 12 13 13 13 14 14 14 14 13 13 13
12 13 13 14 15 16 15 13 13 13 11 11 8 7 6 5 5 5 6 8 10 12 14 16 17 19 21 22 22 22 20 18 16 14 13 12 10 10 9 10 10 10 10 9 8 7 7 7 7 6 6 5 5 5 5 5 4 5 5 5 6 7 8 10 11 12 14 14 10 8 10 11 11 11 11 12 13 14 14 14 14 14 13 12 12
14 13 13 14 15 16 16 15 14 12 11 13 10 9 8 7 6 5 6 8 11 12 14 16 18 20 21 22 23 23 22 20 18 16 14 13 12 11 10 10 10 10 10 10 10 9 8 8 8 7 6 5 5 4 4 5 5 5 6 7 7 7 8 9 11 12 13 11 8 8 10 11 11 11 10 10 11 12 13 12 13 12 12 12 11
Wind_Direction
249 254 271 318 318 310 310 306 293 274 254 245 245 241 227 211 207 202 182 177 190 180 163 148 138 131 125 124 126 130 132 131 131 139 151 160 161 163 163 165 176 174 171 167 167 184 206 226 268 288 271 230 222 217 158 147 140 136 142 137 126 127 135 139 139 134 130 124 118 114 110 107 102 99 97 96 97 94 93 90 89 85 84 83 78
276 298 309 313 306 303 296 290 286 283 277 256 250 253 230 200 183 172 165 167 176 169 157 142 131 129 131 130 126 130 134 136 138 143 155 159 156 152 151 165 188 183 182 180 171 197 217 223 228 226 220 203 200 206 197 175 150 147 144 138 137 143 146 145 141 133 128 122 115 112 107 104 101 98 95 93 91 90 89 87 84 77 72 75 74
314 309 300 286 279 283 287 295 296 293 293 284 292 297 264 221 178 160 157 165 172 165 152 137 130 129 130 124 122 132 140 143 147 150 154 155 146 140 136 134 175 173 174 176 167 207 219 202 182 163 175 180 198 207 199 171 150 146 139 136 144 148 148 145 141 131 126 120 117 117 108 102 99 97 94 91 89 90 90 87 82 76 74 76 76
305 286 286 277 273 278 287 306 308 298 294 283 296 314 297 274 219 173 159 161 161 147 135 129 128 124 121 119 126 138 140 141 148 152 155 157 147 140 138 120 130 128 126 149 164 186 178 164 166 158 160 170 188 189 166 148 145 139 133 139 145 149 148 143 137 128 122 118 121 121 107 103 102 100 97 95 91 89 86 81 75 69 68 63 61
286 290 293 274 271 277 278 285 298 302 299 286 290 308 296 275 265 209 155 141 134 127 124 124 127 130 130 133 140 138 134 139 145 153 161 168 158 148 145 129 106 98 114 146 162 163 156 159 165 158 151 162 172 168 157 149 148 143 142 145 145 148 146 140 132 123 121 121 124 117 107 110 109 106 104 100 95 88 83 78 72 65 62 56 51
294 303 291 269 267 274 282 287 298 298 295 297 295 300 293 258 263 238 154 132 127 134 137 139 143 144 143 144 144 139 142 148 152 162 173 178 163 147 142 128 100 103 131 153 162 154 148 156 157 149 143 152 161 156 153 151 151 148 148 147 144 145 141 136 130 124 124 128 130 122 117 119 116 110 103 96 90 88 85 81 75 69 66 63 56
311 304 288 275 273 282 292 296 301 289 285 287 270 270 272 236 218 212 180 141 131 135 140 144 155 153 151 149 145 151 161 155 159 174 174 176 154 138 139 130 111 116 143 159 157 144 145 154 146 140 140 147 152 149 148 151 153 151 150 148 147 143 138 135 132 130 129 133 135 131 130 135 130 109 91 82 82 88 88 85 79 74 70 66 60
318 302 295 294 304 318 300 289 295 296 295 279 247 216 212 198 184 180 192 154 131 132 141 146 158 162 159 156 159 172 175 159 157 155 138 146 145 139 149 148 136 134 150 163 153 140 147 151 139 139 141 145 149 149 151 155 158 155 153 152 150 144 139 135 133 132 126 125 130 145 154 151 122 103 94 91 98 95 87 84 78 72 67 63 59
316 306 316 325 349 7 298 278 293 309 312 276 228 184 181 171 164 162 165 150 128 131 142 146 152 158 156 153 171 183 172 161 157 142 124 119 137 145 161 155 143 148 157 159 154 147 149 147 141 144 146 147 151 153 158 162 162 158 155 154 152 147 142 136 132 130 127 130 155 194 206 188 109 123 130 126 122 102 89 82 75 68 65 62 57
340 351 350 359 6 3 295 287 307 301 277 275 188 164 162 154 151 156 154 141 131 132 135 139 144 146 148 150 170 171 153 155 153 130 117 113 126 143 155 146 137 149 156 154 155 154 148 146 147 148 148 150 153 158 162 165 163 161 160 159 158 151 145 142 136 138 156 165 202 230 258 300 103 155 149 120 139 97 100 89 81 71 66 62 55
355 4 354 12 348 300 309 311 48 264 261 136 144 154 157 154 151 156 153 146 141 132 132 137 143 145 144 152 163 156 147 153 146 121 111 111 116 128 130 130 133 143 152 154 157 157 149 147 149 147 148 152 155 161 165 166 166 168 170 168 166 157 153 156 143 159 183 187 209 211 222 266 250 184 210 310 286 290 199 121 95 79 71 64 56
344 353 348 358 247 297 315 303 118 151 163 155 157 158 161 158 155 155 154 159 159 143 141 143 143 149 149 158 165 158 152 155 141 117 113 124 115 111 112 122 134 145 151 152 155 156 152 147 148 149 151 156 159 166 170 171 172 174 176 176 175 167 168 166 151 173 184 187 218 224 209 238 248 213 273 266 274 288 284 292 109 93 84 74 63
337 345 349 241 195 154 280 267 108 171 180 188 177 165 160 153 155 155 154 164 171 167 150 143 145 148 153 163 162 156 146 143 131 116 129 145 121 105 108 120 132 145 151 148 149 148 147 146 149 153 157 162 165 173 178 177 176 177 179 184 183 177 178 174 162 172 178 176 197 240 244 238 239 230 249 257 271 289 291 286 222 151 106 81 65
328 327 314 240 222 132 235 299 95 203 202 213 203 172 142 135 151 157 161 160 174 185 163 147 143 134 149 162 150 142 134 129 121 123 144 145 116 104 104 111 118 128 141 145 146 144 146 149 153 156 162 168 170 178 185 183 178 178 184 191 189 182 180 177 170 167 177 186 187 208 234 243 233 228 247 259 271 279 287 283 258 230 170 89 69
315 308 275 264 295 74 101 57 83 102 213 222 222 166 136 134 150 154 168 168 168 181 171 159 141 132 150 158 139 130 128 125 121 124 131 119 104 100 96 94 94 103 119 130 138 140 143 148 153 158 167 175 175 183 194 193 186 185 192 200 199 186 175 176 186 176 184 212 201 200 209 233 235 232 249 258 272 278 284 281 269 243 209 126 89
314 301 286 294 322 15 64 97 93 75 181 182 126 142 150 148 152 150 166 169 152 162 166 157 130 123 135 129 116 115 124 125 123 117 110 104 100 94 88 88 85 87 91 96 114 129 140 147 152 161 172 182 187 196 203 204 202 200 208 218 222 207 181 178 188 182 196 225 213 206 204 224 242 242 251 260 273 279 279 273 267 251 227 175 94
318 306 320 333 340 355 2 57 89 141 158 132 104 126 147 151 150 149 160 155 138 138 145 134 117 117 118 113 113 117 125 127 125 117 111 110 103 92 86 87 84 81 76 76 79 98 135 152 158 165 173 187 200 211 214 213 214 214 220 228 233 233 207 183 184 193 206 222 215 214 214 224 248 254 264 272 273 272 273 272 265 256 244 241 86
297 328 323 349 355 354 356 17 47 297 142 108 103 125 140 146 146 149 155 142 127 119 114 111 114 126 130 122 127 126 131 137 132 122 116 109 96 87 84 83 83 76 67 68 68 75 101 134 149 157 168 187 202 216 226 226 225 224 228 237 245 245 228 190 196 217 214 225 228 231 234 236 253 263 272 276 275 269 266 272 265 245 231 242 243
154 3 312 0 6 11 16 14 21 289 108 104 114 132 138 140 144 157 158 144 128 116 109 107 111 121 121 121 129 131 140 142 132 119 108 92 78 70 68 66 67 63 56 55 52 56 67 86 110 126 149 175 192 209 225 237 241 241 239 248 255 250 242 254 271 249 235 248 252 254 261 268 271 272 277 277 275 270 264 266 258 242 234 245 254
124 80 340 13 24 29 28 103 111 318 76 111 134 137 138 142 151 165 162 156 147 135 125 118 120 120 112 117 130 134 138 132 127 119 98 77 65 58 53 48 51 52 47 43 41 40 38 45 57 77 109 138 169 189 197 226 269 277 278 267 250 242 265 299 287 271 265 270 274 275 278 293 291 283 284 282 277 274 276 272 260 256 257 264 263
111 85 39 21 28 22 297 97 83 57 75 115 142 137 142 151 164 165 162 170 171 164 151 137 140 138 118 102 105 118 120 119 117 102 86 65 50 42 32 29 34 38 39 34 31 30 28 30 32 40 63 91 125 138 146 141 267 287 313 267 224 234 264 269 273 288 283 283 287 285 290 307 306 302 299 290 281 275 274 273 273 275 276 282 280
108 87 64 36 23 13 347 30 55 69 88 118 136 143 147 153 173 166 151 160 166 162 143 128 142 148 132 101 71 85 98 108 107 92 85 66 46 34 20 13 17 24 30 29 25 24 23 22 21 22 31 52 91 89 98 114 128 297 351 65 127 102 237 235 261 288 292 294 288 285 296 312 315 316 313 305 297 293 285 275 279 284 289 295 295
101 91 82 67 41 26 24 32 41 68 96 119 129 146 152 148 160 146 130 122 125 127 119 112 118 128 129 123 124 132 114 106 103 95 86 62 43 28 11 357 359 6 12 20 23 21 18 15 13 10 13 12 19 46 67 87 84 30 0 13 47 67 70 109 235 277 298 287 279 292 314 320 319 318 317 317 316 315 308 297 291 291 298 301 301
90 90 90 96 97 70 51 48 42 64 95 113 133 145 155 141 124 120 117 114 113 117 122 120 118 125 134 147 149 132 111 92 84 78 69 51 39 2 335 349 350 350 349 352 6 10 10 15 8 1 4 8 5 5 13 27 36 24 9 12 14 5 0 320 289 274 253 263 290 331 341 337 332 329 328 327 324 319 309 304 302 301 307 309 308
97 93 95 103 99 80 57 75 74 67 89 111 137 146 146 135 120 115 113 116 117 116 120 121 121 127 130 132 123 107 87 73 61 55 51 40 26 329 341 32 5 345 342 343 347 344 347 5 359 349 356 2 1 356 351 344 348 357 359 3 345 335 326 315 316 283 265 303 339 347 346 348 351 343 336 332 325 316 311 314 314 313 313 308 306
106 99 104 103 85 68 21 41 79 88 94 110 125 131 134 128 122 122 117 112 112 110 109 109 109 107 104 101 89 74 61 55 49 46 42 35 22 353 8 29 16 359 356 350 347 339 342 356 354 348 349 346 341 341 340 336 338 332 328 334 326 324 315 318 312 292 312 356 340 336 344 347 349 341 338 335 327 317 313 320 323 320 315 307 302
110 106 104 95 75 70 44 18 7 71 87 97 114 121 129 128 124 124 119 111 106 101 96 93 95 91 81 72 63 56 49 43 38 37 33 27 20 10 10 14 9 8 7 359 351 338 337 343 344 346 344 336 328 324 323 325 325 314 316 317 311 313 312 320 312 310 348 360 337 345 346 341 331 329 338 336 331 326 320 323 328 325 317 313 311
118 113 100 83 71 64 59 56 6 33 58 71 98 104 113 116 110 115 119 112 102 93 83 76 76 77 69 61 55 48 42 35 28 22 19 14 8 5 1 357 356 356 355 352 345 332 325 323 324 327 329 330 323 313 308 310 311 308 314 313 306 304 307 316 313 321 347 341 342 356 342 334 323 321 333 329 325 323 321 326 327 322 315 312 312
124 115 99 83 73 56 54 88 55 38 44 49 59 59 89 104 103 115 119 107 95 91 87 74 68 73 69 58 46 39 32 23 16 8 2 356 353 350 346 344 341 340 337 336 334 325 319 313 312 310 308 309 308 307 303 302 305 305 310 312 308 301 301 310 309 320 337 331 344 355 341 340 330 324 326 322 319 313 314 319 319 315 308 304 302
127 116 104 90 72 56 87 116 89 66 64 61 56 40 53 79 83 95 103 99 97 100 102 94 88 79 59 40 24 17 9 1 357 352 347 342 341 338 334 333 329 326 325 324 323 316 313 312 308 301 295 292 292 294 293 294 297 297 302 304 303 301 300 305 305 315 329 329 337 343 344 343 331 327 321 321 322 314 312 311 311 308 301 297 296
124 116 106 92 77 79 110 128 111 90 85 83 84 60 28 32 45 47 61 86 105 111 102 101 95 57 17 7 2 356 349 344 342 340 336 332 328 324 320 319 316 312 311 308 306 303 301 299 295 292 291 289 290 290 288 287 289 290 292 292 293 295 295 298 302 308 317 322 327 326 329 329 323 322 318 320 320 313 309 306 307 304 300 296 294
110 107 100 90 89 99 113 124 119 106 100 100 94 67 30 21 31 30 38 71 105 114 85 76 79 10 341 339 341 339 337 337 337 336 334 331 328 322 315 308 303 301 299 294 293 289 282 281 279 280 282 284 287 288 286 287 288 290 291 290 290 290 294 297 295 298 302 303 306 310 313 315 313 313 313 314 310 303 300 302 308 308 306 301 294
94 92 93 96 102 111 117 121 120 112 117 117 85 44 30 28 29 28 32 47 66 74 45 20 340 329 325 324 328 330 331 332 333 332 332 332 330 327 322 313 302 298 296 292 290 286 279 273 269 271 274 275 279 283 285 286 286 286 286 287 288 289 292 292 290 290 288 283 284 289 295 297 297 300 300 295 288 290 297 303 310 313 312 308 303
85 88 94 104 111 115 118 122 119 115 126 121 62 38 39 38 35 33 30 26 26 16 0 346 330 324 318 318 324 327 328 328 328 327 326 325 324 324 323 319 311 302 298 296 295 292 288 279 268 264 265 265 267 271 275 277 279 278 277 278 280 283 283 281 283 284 282 282 282 280 280 282 282 277 267 258 257 270 295 306 310 314 314 310 307
83 93 103 110 113 116 119 123 118 114 117 104 66 54 51 44 38 31 23 15 9 0 350 340 333 328 323 324 328 328 328 328 327 326 322 318 314 312 312 313 311 305 300 299 297 294 293 287 277 268 262 260 259 262 264 266 271 273 275 277 275 276 277 277 278 278 278 279 281 280 277 269 262 262 259 258 270 278 285 295 298 301 303 299 293
91 101 111 114 115 117 119 120 115 109 104 93 77 63 50 38 29 17 9 5 1 357 352 346 341 337 335 334 332 329 328 326 325 324 321 316 311 306 302 302 303 301 298 294 289 284 284 282 279 275 272 268 264 263 264 265 269 270 273 275 272 271 271 272 273 273 274 274 275 276 275 271 268 272 282 292 294 285 280 281 284 283 284 285 284
100 111 117 119 119 120 120 118 112 105 99 88 73 57 41 27 18 11 7 4 360 355 351 348 344 342 339 334 330 328 326 325 324 322 318 315 311 306 301 298 296 294 292 288 282 277 272 269 270 272 271 271 270 269 266 266 269 270 272 272 270 268 267 268 269 270 271 271 273 275 278 281 283 289 293 290 288 286 282 278 277 278 277 276 279
104 119 125 126 126 126 122 118 111 103 93 80 65 48 33 21 13 9 7 4 359 355 352 350 349 348 344 337 332 329 327 326 325 324 320 315 311 307 303 301 299 296 294 292 287 279 273 266 263 263 262 262 265 267 266 266 267 268 269 271 270 268 268 268 266 266 269 270 270 272 273 274 275 279 282 286 290 285 281 279 277 276 274 273 273
113 124 133 135 134 132 126 118 110 99 88 75 62 42 27 18 11 8 6 5 2 359 356 355 357 357 352 347 341 335 332 329 327 326 322 319 316 313 311 308 306 303 301 301 298 292 285 277 269 265 263 260 258 259 262 262 263 265 261 261 266 265 264 266 266 264 263 264 265 265 266 265 265 266 269 277 280 277 277 276 275 274 273 272 271
128 130 140 145 143 137 129 119 109 100 92 76 56 37 23 15 10 8 9 9 6 4 1 1 2 1 358 357 353 347 343 338 335 332 328 324 321 319 317 315 314 313 311 308 306 303 297 290 281 272 266 264 260 259 263 259 254 259 260 257 260 263 261 261 262 261 258 258 259 260 260 258 258 258 258 263 268 273 272 268 270 273 272 271 270
160 149 149 154 152 144 134 125 118 109 97 76 54 33 20 15 13 11 11 12 9 6 3 2 4 4 3 3 2 359 354 350 346 342 339 335 331 329 327 327 327 326 325 322 317 313 307 299 292 285 277 271 261 255 262 261 250 252 260 260 260 261 262 260 256 256 256 257 257 255 253 252 253 255 257 260 263 266 265 262 264 266 268 269 268
184 174 163 161 158 151 142 136 131 120 103 83 58 34 27 21 17 17 16 13 11 8 5 3 5 6 7 7 7 6 2 359 357 354 351 346 345 342 338 338 336 333 332 329 326 321 316 308 300 295 288 280 270 258 262 267 263 261 260 256 257 262 265 264 261 260 258 256 255 254 253 252 253 257 259 260 260 260 258 258 258 259 264 270 272
197 192 184 174 168 164 157 151 147 131 117 105 76 44 36 24 18 20 16 11 9 9 8 6 7 9 10 9 9 8 6 2 359 357 353 348 348 344 341 342 340 338 337 335 332 326 321 318 310 307 303 294 290 282 276 271 259 259 259 255 255 261 267 267 264 265 264 261 258 257 255 253 253 255 258 259 258 258 257 256 254 255 262 271 275
213 206 201 194 187 183 177 169 162 148 137 127 92 48 26 16 13 13 6 1 2 5 7 7 9 10 10 10 10 8 6 1 354 349 345 343 341 340 341 343 343 343 342 341 338 332 328 323 316 315 315 307 298 290 286 276 248 238 247 258 258 258 263 267 266 267 269 268 267 264 261 259 257 256 256 257 258 258 257 257 257 257 263 271 275
226 218 211 211 206 197 191 185 176 168 164 170 164 20 4 5 8 5 355 350 354 359 4 6 8 8 8 9 9 8 6 1 353 341 332 329 328 330 335 338 341 342 341 340 337 334 330 323 319 318 314 310 304 292 283 277 258 231 224 234 243 247 251 255 259 263 265 267 266 262 261 261 262 263 260 258 258 258 260 261 263 264 267 271 274
235 226 217 221 218 203 197 193 187 184 184 191 207 259 316 347 359 353 344 344 350 356 2 6 6 5 5 5 4 4 3 359 353 344 328 316 310 312 316 321 327 330 332 332 330 330 325 321 321 319 314 307 302 298 290 280 273 253 235 226 226 235 243 248 255 260 260 263 263 258 258 259 261 266 267 265 264 265 265 265 267 268 269 271 275
238 233 221 223 224 214 207 205 206 211 208 204 213 243 278 323 354 348 342 344 350 354 0 4 4 3 2 2 1 360 358 356 353 348 337 321 305 300 301 302 306 310 318 323 326 328 324 321 320 315 311 306 299 295 289 286 290 283 268 252 237 239 247 249 256 262 262 262 263 261 261 261 261 262 264 266 267 267 267 268 272 274 272 272 273
232 236 227 222 225 225 224 225 228 227 214 207 218 237 262 304 352 347 338 341 348 353 358 360 1 1 0 1 0 359 357 353 349 346 342 333 314 300 295 294 295 297 301 307 315 321 322 319 314 308 306 302 296 289 285 289 279 267 263 262 258 256 257 250 247 255 260 259 261 266 267 264 262 258 256 257 259 260 264 267 270 273 275 274 273
230 235 231 226 226 229 235 237 241 238 219 208 221 236 257 294 325 333 331 335 344 351 355 356 356 356 357 359 359 359 358 354 348 344 341 338 327 311 299 294 293 292 290 292 298 308 315 315 307 300 296 291 285 278 275 269 259 260 260 253 252 255 261 257 249 252 259 261 260 262 264 263 259 255 253 253 253 255 258 263 268 269 271 274 276
236 235 234 230 229 233 240 242 253 257 228 207 219 237 257 291 307 316 324 331 340 348 351 351 351 352 352 354 357 359 358 354 350 345 341 338 333 324 312 302 299 295 292 293 297 306 314 316 310 300 292 283 275 267 256 247 247 249 246 244 249 253 258 264 264 262 265 268 269 263 258 257 255 254 256 256 254 255 256 259 265 268 270 273 276
243 238 236 233 230 233 240 244 256 259 220 204 221 238 255 284 295 299 312 322 331 338 341 342 345 346 347 349 352 356 356 354 351 349 344 339 335 330 321 312 306 300 298 298 302 309 316 319 317 311 304 295 288 281 263 248 243 239 239 242 250 255 257 264 268 267 267 271 279 275 264 258 256 256 258 258 257 259 260 261 264 268 272 275 277
Height
3156 3157 3161 3166 3167 3165 3164 3162 3161 3159 3158 3157 3156 3156 3157 3158 3160 3162 3162 3163 3163 3163 3162 3163 3163 3164 3164 3164 3164 3164 3164 3164 3164 3164 3164 3165 3165 3165 3166 3166 3166 3167 3167 3167 3167 3167 3167 3167 3168 3168 3168 3168 3168 3168 3168 3168 3168 3168 3168 3168 3168 3169 3169 3169 3170 3169 3169 3169 3169 3168 3168 3168 3167 3167 3167 3166 3166 3166 3166 3165 3165 3165 3165 3165 3165
3160 3162 3164 3166 3167 3165 3163 3161 3161 3161 3160 3158 3157 3157 3157 3156 3157 3160 3161 3162 3162 3161 3162 3163 3163 3163 3163 3163 3163 3164 3164 3164 3164 3165 3165 3165 3165 3166 3166 3166 3166 3167 3167 3167 3167 3167 3167 3167 3167 3168 3167 3168 3168 3168 3168 3168 3167 3168 3168 3168 3168 3169 3169 3170 3169 3169 3169 3169 3169 3169 3168 3168 3168 3167 3167 3167 3166 3166 3166 3166 3166 3165 3165 3165 3165
3163 3162 3163 3163 3163 3163 3162 3161 3161 3161 3162 3161 3160 3160 3161 3159 3158 3157 3159 3160 3160 3160 3161 3162 3163 3163 3164 3164 3163 3164 3164 3164 3164 3165 3165 3166 3166 3166 3166 3166 3166 3167 3167 3167 3167 3167 3167 3167 3167 3167 3167 3168 3168 3168 3168 3168 3167 3167 3168 3168 3168 3169 3169 3169 3169 3169 3169 3169 3169 3169 3169 3168 3168 3168 3168 3167 3167 3167 3167 3166 3166 3166 3166 3166 3165
3162 3160 3162 3162 3162 3162 3162 3161 3161 3161 3161 3162 3162 3162 3162 3162 3160 3158 3157 3158 3158 3158 3160 3161 3163 3164 3165 3164 3164 3165 3165 3165 3165 3165 3166 3166 3166 3166 3166 3166 3166 3167 3167 3167 3167 3167 3167 3167 3167 3167 3167 3168 3168 3168 3168 3168 3168 3168 3168 3168 3169 3169 3169 3169 3169 3169 3170 3170 3170 3169 3169 3169 3169 3168 3168 3168 3168 3168 3167 3167 3167 3166 3166 3166 3166
3160 3161 3162 3161 3161 3161 3161 3161 3161 3161 3162 3162 3163 3163 3162 3161 3161 3160 3158 3158 3158 3159 3160 3161 3162 3164 3165 3165 3165 3165 3165 3165 3165 3165 3166 3166 3166 3165 3166 3166 3166 3167 3167 3167 3167 3167 3167 3167 3167 3167 3167 3168 3168 3168 3168 3168 3168 3168 3168 3169 3169 3169 3170 3170 3170 3170 3170 3170 3170 3170 3170 3170 3169 3169 3169 3169 3169 3169 3168 3168 3167 3167 3167 3166 3166
3161 3161 3161 3160 3160 3161 3160 3160 3161 3161 3161 3162 3162 3162 3162 3161 3161 3162 3159 3158 3159 3160 3161 3162 3163 3164 3164 3165 3165 3165 3166 3165 3165 3166 3166 3166 3165 3165 3165 3166 3166 3166 3167 3167 3167 3167 3167 3167 3167 3167 3168 3168 3168 3168 3168 3169 3168 3169 3169 3169 3170 3170 3170 3170 3170 3170 3170 3170 3170 3170 3170 3170 3170 3170 3170 3170 3170 3169 3169 3168 3168 3168 3167 3167 3167
3161 3161 3160 3160 3160 3160 3161 3161 3162 3161 3160 3161 3161 3161 3161 3161 3161 3162 3162 3160 3159 3160 3161 3162 3163 3164 3164 3165 3165 3166 3166 3166 3166 3166 3166 3166 3165 3165 3165 3166 3166 3166 3167 3167 3167 3167 3167 3167 3167 3167 3168 3168 3168 3168 3169 3169 3169 3169 3169 3169 3169 3170 3170 3170 3170 3171 3171 3171 3171 3171 3170 3170 3170 3170 3170 3170 3170 3170 3169 3169 3169 3168 3168 3168 3167
3161 3160 3159 3160 3160 3161 3161 3161 3161 3160 3160 3159 3159 3160 3160 3161 3162 3163 3164 3163 3160 3160 3162 3163 3164 3164 3164 3165 3165 3165 3165 3165 3166 3166 3166 3166 3165 3165 3165 3166 3166 3166 3167 3167 3167 3167 3167 3167 3167 3167 3168 3168 3168 3168 3169 3169 3169 3169 3169 3169 3169 3169 3170 3170 3171 3171 3171 3171 3171 3171 3171 3171 3171 3171 3171 3171 3171 3171 3170 3169 3169 3169 3168 3168 3168
3161 3160 3160 3159 3160 3161 3161 3161 3160 3160 3160 3159 3159 3159 3160 3160 3161 3162 3163 3164 3161 3161 3163 3163 3164 3165 3165 3165 3165 3165 3165 3165 3166 3165 3166 3166 3166 3166 3166 3166 3166 3167 3167 3167 3167 3167 3167 3167 3167 3167 3168 3168 3168 3168 3169 3169 3169 3169 3169 3169 3169 3170 3170 3170 3171 3171 3171 3171 3171 3171 3171 3172 3172 3172 3171 3171 3171 3171 3170 3170 3169 3169 3169 3168 3168
3161 3160 3160 3160 3160 3160 3160 3160 3161 3161 3160 3159 3159 3159 3160 3160 3161 3162 3163 3163 3163 3163 3164 3164 3165 3165 3165 3165 3165 3165 3166 3166 3167 3167 3167 3167 3167 3167 3167 3167 3167 3167 3168 3168 3168 3167 3168 3168 3168 3168 3168 3168 3168 3168 3169 3169 3169 3169 3169 3169 3170 3170 3170 3170 3171 3171 3171 3171 3171 3172 3172 3172 3172 3172 3172 3172 3171 3171 3170 3170 3170 3169 3169 3169 3168
3161 3160 3160 3161 3161 3160 3160 3160 3161 3160 3160 3159 3159 3160 3160 3161 3161 3162 3163 3164 3164 3164 3164 3165 3165 3165 3165 3165 3165 3166 3166 3167 3168 3169 3169 3169 3168 3168 3168 3168 3168 3168 3168 3169 3168 3168 3168 3168 3168 3168 3168 3168 3168 3169 3169 3169 3169 3170 3170 3170 3170 3170 3170 3171 3171 3171 3171 3172 3172 3172 3172 3172 3172 3172 3172 3172 3171 3171 3171 3170 3170 3170 3170 3169 3169
3161 3161 3160 3160 3160 3160 3160 3160 3160 3160 3160 3159 3159 3159 3160 3160 3161 3162 3163 3164 3165 3165 3164 3164 3165 3165 3165 3165 3165 3166 3168 3168 3168 3169 3170 3170 3169 3169 3169 3169 3169 3169 3169 3169 3169 3169 3169 3169 3169 3169 3169 3169 3169 3169 3169 3169 3169 3170 3170 3170 3170 3170 3171 3171 3172 3172 3172 3172 3172 3172 3173 3172 3172 3172 3172 3172 3172 3171 3171 3170 3170 3170 3170 3169 3169
3161 3161 3160 3160 3160 3160 3160 3160 3161 3160 3160 3158 3158 3158 3159 3160 3162 3163 3164 3164 3165 3166 3164 3164 3164 3165 3165 3165 3166 3167 3168 3169 3169 3170 3171 3171 3171 3170 3170 3170 3170 3170 3170 3170 3170 3170 3170 3170 3170 3170 3170 3169 3169 3169 3169 3170 3170 3170 3170 3170 3170 3170 3171 3171 3172 3172 3172 3172 3172 3173 3173 3173 3172 3172 3172 3172 3171 3171 3171 3170 3170 3170 3170 3169 3169
3162 3161 3160 3159 3158 3161 3161 3160 3161 3161 3159 3158 3158 3159 3160 3161 3162 3163 3165 3165 3166 3166 3166 3165 3164 3165 3166 3166 3167 3168 3168 3169 3170 3170 3172 3172 3171 3171 3171 3171 3171 3171 3171 3170 3171 3171 3171 3171 3171 3171 3170 3170 3170 3170 3170 3170 3170 3170 3170 3170 3170 3170 3171 3171 3172 3172 3172 3172 3173 3173 3173 3173 3173 3172 3172 3172 3171 3171 3171 3170 3170 3170 3170 3169 3169
3162 3161 3160 3159 3158 3161 3161 3161 3162 3161 3160 3159 3159 3161 3161 3162 3162 3163 3165 3166 3167 3167 3167 3165 3163 3164 3167 3167 3167 3167 3168 3170 3170 3171 3171 3171 3171 3172 3171 3171 3171 3171 3171 3171 3171 3171 3171 3171 3171 3171 3171 3170 3170 3170 3170 3171 3171 3171 3170 3170 3170 3170 3171 3172 3172 3172 3172 3172 3173 3173 3173 3173 3173 3172 3172 3172 3171 3171 3171 3170 3170 3170 3170 3169 3169
3162 3161 3160 3160 3158 3161 3162 3161 3162 3160 3161 3161 3161 3161 3161 3162 3163 3164 3165 3166 3167 3167 3167 3164 3162 3163 3165 3166 3166 3167 3169 3170 3171 3171 3171 3172 3172 3172 3172 3172 3172 3172 3172 3172 3172 3172 3172 3172 3172 3172 3171 3171 3171 3171 3171 3171 3171 3171 3171 3170 3170 3171 3171 3172 3172 3172 3172 3173 3173 3173 3173 3173 3173 3172 3172 3172 3171 3171 3171 3171 3170 3170 3170 3169 3169
3161 3161 3161 3161 3160 3161 3161 3161 3162 3161 3161 3162 3163 3162 3161 3163 3164 3165 3166 3166 3167 3168 3168 3165 3163 3164 3166 3166 3167 3168 3170 3171 3171 3171 3172 3172 3173 3173 3173 3172 3172 3172 3172 3172 3172 3172 3172 3172 3172 3172 3172 3172 3171 3171 3171 3171 3171 3171 3171 3171 3171 3171 3171 3172 3172 3172 3172 3172 3172 3172 3173 3173 3173 3173 3172 3172 3171 3171 3171 3171 3170 3170 3170 3169 3169
3161 3161 3161 3161 3161 3162 3161 3161 3162 3161 3161 3164 3164 3163 3163 3164 3165 3166 3166 3167 3167 3168 3168 3168 3166 3167 3168 3169 3170 3170 3171 3172 3172 3172 3172 3173 3173 3173 3173 3173 3173 3173 3173 3173 3173 3173 3173 3173 3173 3173 3173 3172 3172 3171 3171 3171 3171 3171 3171 3171 3171 3171 3172 3172 3172 3173 3173 3173 3173 3173 3173 3173 3173 3172 3172 3172 3172 3172 3171 3171 3170 3170 3170 3169 3169
3161 3161 3161 3162 3162 3162 3162 3162 3161 3161 3162 3165 3165 3164 3164 3165 3166 3167 3167 3168 3168 3168 3168 3169 3170 3169 3169 3171 3171 3172 3172 3173 3173 3172 3173 3173 3173 3173 3174 3174 3174 3173 3173 3173 3173 3173 3174 3174 3174 3174 3174 3173 3173 3172 3172 3172 3172 3172 3172 3172 3172 3172 3172 3173 3173 3173 3173 3173 3173 3173 3173 3173 3173 3172 3172 3172 3172 3172 3171 3171 3170 3170 3170 3169 3169
3162 3161 3161 3162 3163 3163 3162 3162 3162 3161 3163 3165 3164 3164 3165 3166 3167 3167 3168 3168 3169 3169 3169 3170 3171 3171 3171 3172 3172 3173 3173 3173 3173 3173 3173 3173 3173 3173 3174 3174 3174 3174 3174 3174 3174 3174 3174 3174 3174 3175 3174 3174 3174 3173 3173 3173 3173 3172 3172 3172 3172 3172 3173 3173 3173 3174 3174 3173 3173 3173 3173 3173 3173 3172 3172 3172 3172 3171 3171 3171 3170 3170 3170 3170 3170
3162 3162 3162 3162 3163 3163 3162 3161 3162 3163 3165 3165 3165 3165 3166 3166 3167 3167 3168 3169 3169 3170 3170 3171 3172 3172 3172 3172 3173 3174 3174 3174 3174 3174 3174 3174 3174 3173 3173 3174 3174 3174 3174 3174 3174 3174 3174 3174 3175 3175 3175 3175 3175 3174 3174 3174 3174 3173 3173 3173 3173 3173 3174 3174 3174 3174 3174 3173 3173 3173 3173 3173 3173 3173 3172 3172 3172 3171 3171 3171 3171 3171 3170 3170 3170
3161 3162 3162 3163 3163 3163 3162 3162 3163 3164 3165 3165 3165 3165 3166 3167 3167 3167 3168 3169 3169 3170 3171 3171 3172 3172 3172 3173 3174 3174 3174 3174 3174 3175 3175 3174 3174 3174 3174 3174 3174 3174 3174 3174 3174 3174 3174 3175 3175 3175 3175 3176 3175 3175 3175 3175 3175 3174 3174 3174 3174 3174 3174 3174 3174 3174 3174 3174 3173 3173 3173 3173 3173 3173 3173 3172 3172 3172 3172 3171 3171 3171 3171 3171 3170
3162 3163 3163 3163 3163 3163 3163 3163 3164 3164 3165 3165 3166 3166 3166 3167 3167 3167 3168 3169 3170 3170 3171 3172 3172 3172 3173 3174 3174 3175 3174 3175 3175 3175 3175 3175 3175 3174 3174 3174 3174 3174 3174 3174 3174 3174 3175 3175 3175 3175 3175 3175 3175 3176 3175 3175 3175 3175 3174 3174 3174 3174 3174 3174 3174 3174 3174 3173 3173 3173 3173 3173 3173 3173 3173 3173 3172 3172 3172 3172 3172 3172 3171 3171 3170
3162 3163 3164 3164 3164 3164 3164 3164 3164 3165 3165 3166 3166 3166 3166 3167 3167 3167 3168 3169 3170 3171 3172 3172 3172 3173 3174 3175 3175 3175 3175 3175 3175 3175 3175 3175 3175 3175 3175 3174 3174 3174 3174 3174 3174 3174 3175 3175 3175 3175 3175 3175 3175 3175 3176 3176 3175 3175 3174 3174 3174 3175 3175 3174 3173 3173 3173 3173 3173 3173 3174 3173 3173 3173 3173 3173 3173 3173 3172 3172 3172 3172 3171 3171 3171
3163 3164 3165 3165 3164 3164 3164 3164 3165 3165 3166 3166 3166 3166 3166 3167 3168 3168 3169 3169 3170 3171 3172 3172 3173 3174 3175 3175 3175 3175 3175 3175 3175 3175 3175 3175 3175 3175 3174 3174 3174 3175 3174 3174 3174 3174 3174 3174 3174 3174 3174 3175 3175 3175 3175 3175 3175 3175 3174 3174 3174 3174 3174 3173 3173 3172 3172 3173 3174 3173 3173 3173 3173 3173 3173 3173 3173 3173 3172 3172 3172 3171 3171 3171 3171
3163 3164 3165 3165 3165 3165 3164 3164 3165 3166 3167 3167 3167 3167 3168 3168 3169 3169 3169 3170 3170 3171 3172 3173 3173 3174 3175 3175 3175 3175 3175 3175 3175 3175 3175 3175 3175 3174 3173 3174 3175 3175 3175 3175 3175 3174 3174 3174 3174 3174 3174 3175 3175 3175 3175 3175 3175 3175 3174 3174 3174 3174 3173 3173 3173 3171 3172 3174 3173 3173 3173 3173 3173 3173 3173 3173 3173 3172 3172 3172 3171 3171 3171 3171 3171
3164 3165 3165 3166 3166 3166 3165 3165 3165 3166 3167 3168 3168 3169 3169 3170 3169 3170 3170 3170 3171 3172 3173 3173 3174 3174 3175 3175 3175 3175 3175 3175 3175 3175 3175 3175 3175 3175 3174 3175 3175 3175 3175 3175 3175 3175 3175 3174 3174 3174 3174 3175 3175 3175 3175 3174 3175 3175 3174 3174 3174 3173 3173 3173 3172 3171 3173 3173 3173 3173 3173 3173 3173 3173 3173 3173 3173 3172 3172 3172 3171 3171 3171 3171 3171
3165 3165 3166 3166 3166 3166 3166 3166 3165 3165 3166 3167 3168 3169 3170 3170 3170 3171 3171 3171 3171 3172 3173 3174 3174 3174 3175 3175 3175 3175 3175 3175 3175 3175 3175 3175 3175 3175 3175 3175 3175 3175 3175 3175 3175 3175 3175 3175 3174 3174 3174 3174 3174 3174 3174 3174 3174 3174 3174 3173 3173 3173 3173 3173 3172 3172 3173 3172 3173 3174 3173 3173 3173 3173 3173 3173 3172 3172 3172 3171 3171 3171 3170 3170 3170
3166 3166 3166 3166 3167 3167 3167 3167 3166 3166 3166 3166 3166 3168 3169 3171 3171 3171 3171 3171 3172 3172 3173 3174 3175 3175 3175 3176 3176 3176 3176 3175 3175 3175 3175 3175 3175 3175 3175 3175 3175 3175 3175 3175 3175 3175 3175 3174 3174 3174 3173 3173 3173 3173 3174 3173 3173 3173 3173 3173 3173 3173 3172 3172 3171 3172 3172 3171 3172 3173 3172 3172 3172 3172 3172 3172 3171 3171 3171 3171 3171 3170 3170 3170 3170
3166 3167 3167 3167 3167 3167 3167 3167 3168 3169 3169 3168 3168 3168 3168 3169 3171 3171 3170 3170 3172 3173 3174 3174 3175 3175 3176 3176 3176 3176 3175 3175 3175 3175 3175 3175 3174 3174 3174 3175 3175 3175 3175 3175 3175 3174 3174 3174 3174 3173 3173 3173 3173 3173 3173 3173 3173 3172 3172 3172 3172 3172 3172 3171 3171 3171 3171 3170 3171 3171 3171 3171 3171 3171 3171 3171 3170 3170 3170 3170 3169 3169 3169 3169 3169
3167 3167 3167 3168 3168 3168 3168 3168 3170 3170 3171 3171 3171 3170 3169 3169 3169 3169 3169 3170 3172 3173 3174 3175 3175 3176 3176 3176 3176 3175 3175 3175 3175 3175 3175 3175 3174 3174 3174 3174 3174 3174 3174 3174 3174 3174 3174 3173 3173 3173 3173 3172 3172 3172 3172 3172 3172 3172 3171 3171 3171 3171 3170 3170 3170 3169 3169 3169 3170 3170 3170 3170 3170 3170 3169 3169 3169 3168 3168 3168 3168 3168 3168 3168 3168
3167 3168 3168 3168 3168 3168 3169 3170 3171 3172 3172 3173 3173 3173 3172 3172 3171 3171 3171 3172 3173 3173 3174 3175 3175 3176 3176 3176 3176 3175 3175 3175 3174 3174 3174 3174 3174 3174 3173 3173 3173 3173 3173 3173 3172 3172 3172 3172 3172 3172 3172 3172 3172 3172 3172 3172 3171 3171 3171 3170 3170 3170 3169 3169 3168 3168 3168 3168 3168 3168 3169 3168 3168 3168 3167 3167 3167 3167 3167 3167 3167 3167 3167 3167 3167
3168 3168 3168 3168 3169 3169 3170 3171 3172 3173 3174 3174 3175 3175 3175 3174 3174 3173 3173 3173 3174 3174 3175 3175 3176 3176 3176 3175 3175 3174 3174 3174 3174 3173 3173 3173 3173 3173 3173 3172 3172 3172 3171 3171 3171 3171 3171 3171 3171 3171 3170 3171 3171 3171 3171 3171 3170 3170 3170 3170 3169 3169 3168 3168 3167 3167 3166 3166 3166 3167 3167 3167 3166 3166 3165 3165 3165 3165 3165 3166 3166 3166 3166 3166 3165
3168 3169 3169 3169 3169 3170 3171 3172 3173 3174 3174 3175 3176 3176 3175 3175 3175 3175 3175 3175 3175 3175 3175 3175 3176 3175 3175 3174 3174 3173 3173 3173 3173 3172 3172 3172 3172 3172 3171 3171 3171 3171 3170 3170 3169 3169 3169 3169 3169 3169 3169 3169 3170 3170 3170 3169 3169 3169 3169 3169 3168 3168 3168 3167 3166 3166 3165 3165 3164 3165 3165 3164 3164 3163 3162 3162 3163 3164 3164 3164 3164 3164 3164 3164 3164
3169 3169 3170 3170 3170 3171 3172 3173 3174 3175 3175 3176 3177 3176 3176 3176 3176 3176 3176 3176 3175 3175 3175 3175 3175 3175 3174 3173 3173 3172 3172 3171 3171 3171 3171 3171 3171 3171 3170 3170 3170 3169 3169 3168 3168 3168 3168 3168 3168 3168 3168 3168 3168 3168 3168 3168 3168 3167 3167 3167 3167 3167 3167 3166 3165 3165 3164 3164 3163 3162 3162 3162 3161 3159 3159 3161 3163 3163 3163 3163 3163 3163 3163 3162 3162
3169 3170 3170 3171 3171 3172 3173 3174 3175 3176 3176 3177 3177 3177 3177 3177 3177 3176 3176 3175 3175 3175 3175 3174 3174 3174 3173 3172 3171 3171 3170 3170 3170 3169 3169 3169 3169 3169 3169 3169 3168 3168 3168 3167 3167 3166 3166 3166 3166 3166 3166 3167 3167 3167 3167 3166 3166 3166 3166 3166 3166 3166 3165 3165 3164 3163 3163 3162 3162 3160 3160 3160 3159 3158 3159 3161 3162 3162 3161 3161 3161 3161 3161 3161 3160
3170 3170 3171 3171 3172 3173 3174 3175 3176 3177 3177 3177 3178 3178 3177 3177 3177 3176 3176 3175 3175 3175 3174 3174 3174 3173 3172 3172 3171 3170 3169 3169 3168 3168 3168 3168 3167 3167 3167 3167 3166 3166 3166 3166 3165 3165 3165 3165 3165 3165 3165 3165 3165 3165 3165 3165 3165 3164 3164 3164 3164 3164 3164 3164 3163 3163 3162 3161 3161 3159 3159 3159 3159 3158 3158 3159 3160 3160 3160 3160 3160 3160 3160 3159 3159
3171 3171 3172 3172 3173 3174 3175 3176 3177 3177 3178 3178 3178 3178 3178 3178 3177 3177 3176 3176 3175 3175 3174 3174 3173 3173 3172 3171 3170 3169 3169 3168 3167 3167 3167 3166 3166 3165 3165 3165 3164 3164 3164 3163 3163 3163 3163 3163 3163 3163 3163 3163 3163 3163 3163 3163 3163 3163 3163 3163 3162 3162 3162 3162 3162 3161 3161 3160 3160 3159 3159 3159 3159 3159 3158 3158 3159 3159 3159 3159 3159 3159 3158 3158 3157
3171 3172 3172 3173 3174 3175 3176 3176 3177 3178 3178 3179 3179 3179 3179 3178 3178 3177 3177 3176 3175 3175 3174 3173 3173 3172 3171 3170 3170 3169 3168 3167 3167 3166 3166 3165 3164 3164 3163 3163 3163 3162 3162 3162 3162 3161 3160 3160 3160 3161 3161 3161 3161 3161 3161 3161 3162 3161 3161 3161 3161 3161 3160 3160 3160 3160 3159 3159 3159 3158 3158 3158 3158 3158 3158 3158 3158 3158 3158 3158 3158 3157 3157 3156 3156
3172 3172 3173 3174 3174 3175 3176 3177 3177 3178 3179 3179 3179 3179 3179 3179 3178 3177 3177 3176 3176 3175 3174 3173 3172 3171 3171 3170 3169 3168 3167 3167 3166 3165 3165 3164 3163 3163 3162 3162 3162 3161 3161 3160 3160 3159 3159 3158 3158 3158 3159 3159 3159 3160 3160 3159 3160 3160 3160 3159 3159 3159 3159 3159 3158 3158 3157 3157 3157 3157 3157 3157 3157 3157 3157 3157 3157 3157 3157 3157 3157 3156 3156 3155 3154
3172 3173 3173 3174 3175 3175 3176 3177 3178 3178 3179 3179 3180 3180 3179 3179 3179 3178 3177 3177 3176 3176 3175 3174 3173 3172 3170 3169 3168 3167 3166 3166 3165 3165 3164 3163 3163 3163 3162 3162 3161 3161 3160 3160 3159 3158 3158 3157 3157 3156 3157 3157 3158 3158 3158 3158 3158 3158 3159 3158 3158 3158 3158 3157 3157 3156 3156 3156 3156 3156 3156 3156 3155 3155 3155 3155 3155 3155 3156 3156 3156 3155 3154 3154 3153
3173 3173 3174 3174 3175 3176 3176 3177 3178 3178 3179 3180 3180 3180 3180 3179 3179 3178 3178 3177 3177 3176 3175 3174 3173 3172 3171 3170 3168 3167 3166 3165 3165 3164 3164 3163 3163 3162 3162 3161 3161 3160 3160 3159 3159 3158 3157 3156 3156 3155 3155 3155 3156 3156 3156 3156 3156 3157 3157 3157 3157 3156 3156 3155 3155 3155 3155 3155 3155 3154 3154 3154 3154 3154 3154 3154 3154 3154 3154 3154 3154 3154 3153 3152 3152
3173 3173 3174 3175 3175 3176 3176 3177 3178 3178 3179 3180 3180 3181 3180 3180 3179 3179 3178 3178 3177 3176 3175 3174 3173 3172 3171 3170 3169 3168 3167 3166 3165 3164 3163 3163 3162 3162 3161 3161 3160 3160 3159 3159 3158 3157 3156 3155 3155 3154 3154 3154 3154 3155 3154 3154 3155 3155 3156 3156 3156 3155 3155 3154 3154 3154 3153 3153 3153 3153 3153 3153 3153 3153 3153 3153 3153 3153 3153 3153 3153 3153 3153 3152 3151
3172 3173 3174 3174 3175 3176 3176 3177 3178 3178 3179 3180 3180 3180 3180 3180 3179 3179 3178 3178 3177 3176 3175 3174 3173 3172 3171 3171 3170 3168 3167 3166 3165 3164 3163 3162 3161 3161 3160 3160 3159 3158 3158 3157 3157 3156 3155 3154 3154 3153 3153 3153 3153 3154 3153 3153 3153 3154 3154 3154 3154 3154 3154 3152 3152 3152 3152 3151 3151 3152 3152 3152 3152 3152 3152 3152 3152 3152 3152 3152 3152 3152 3152 3151 3149
3172 3173 3174 3174 3175 3175 3176 3176 3177 3178 3179 3179 3180 3180 3180 3180 3179 3179 3178 3178 3177 3176 3175 3174 3173 3172 3171 3170 3169 3168 3167 3166 3165 3164 3163 3162 3161 3160 3160 3159 3158 3158 3157 3156 3156 3155 3154 3154 3153 3153 3152 3152 3152 3152 3152 3152 3152 3152 3152 3153 3153 3153 3152 3151 3151 3151 3150 3150 3150 3150 3150 3151 3151 3151 3151 3151 3151 3150 3150 3150 3150 3150 3150 3149 3148
3170 3172 3173 3174 3174 3175 3176 3176 3177 3178 3178 3179 3179 3180 3180 3179 3179 3179 3178 3178 3177 3176 3175 3174 3173 3172 3171 3170 3169 3168 3167 3166 3165 3164 3163 3162 3161 3160 3160 3159 3158 3158 3157 3156 3155 3155 3154 3153 3152 3152 3151 3151 3151 3151 3151 3151 3151 3150 3151 3151 3151 3150 3150 3150 3149 3149 3148 3148 3148 3148 3149 3149 3150 3150 3149 3149 3149 3149 3149 3149 3149 3149 3149 3148 3147
3169 3170 3172 3173 3174 3175 3175 3176 3177 3178 3178 3179 3179 3179 3179 3179 3179 3178 3178 3177 3176 3175 3174 3173 3172 3172 3171 3170 3169 3168 3167 3165 3164 3163 3162 3161 3160 3159 3159 3158 3158 3157 3156 3156 3155 3154 3153 3152 3152 3151 3150 3150 3150 3150 3150 3150 3149 3149 3149 3149 3149 3149 3149 3149 3148 3147 3146 3146 3146 3147 3147 3148 3148 3148 3148 3147 3147 3147 3147 3147 3147 3147 3147 3147 3146
3168 3169 3170 3171 3173 3174 3175 3176 3176 3177 3178 3178 3179 3179 3179 3179 3178 3178 3178 3177 3176 3175 3174 3173 3172 3171 3170 3169 3168 3167 3166 3164 3163 3162 3161 3160 3159 3159 3158 3157 3157 3156 3156 3155 3154 3153 3153 3152 3151 3150 3150 3149 3149 3149 3149 3149 3149 3148 3148 3148 3148 3148 3148 3147 3147 3146 3144 3143 3144 3145 3146 3146 3146 3146 3146 3145 3145 3145 3145 3145 3145 3145 3145 3145 3144
3166 3167 3169 3170 3171 3172 3173 3174 3175 3176 3177 3178 3179 3179 3179 3178 3178 3178 3177 3177 3176 3175 3174 3173 3171 3171 3169 3168 3167 3166 3165 3164 3163 3161 3160 3160 3158 3158 3157 3156 3156 3155 3155 3154 3154 3153 3152 3152 3151 3150 3150 3149 3148 3148 3148 3148 3148 3147 3147 3147 3147 3147 3146 3146 3145 3145 3143 3142 3143 3145 3145 3144 3144 3144 3144 3144 3144 3144 3144 3143 3143 3143 3143 3143 3142
3165 3166 3167 3169 3170 3171 3172 3173 3174 3174 3175 3177 3178 3178 3178 3178 3177 3177 3176 3176 3175 3174 3173 3172 3171 3169 3168 3167 3166 3165 3164 3163 3162 3161 3160 3159 3157 3156 3156 3155 3154 3154 3153 3153 3152 3152 3151 3151 3150 3149 3149 3148 3148 3147 3147 3147 3147 3146 3146 3146 3146 3146 3146 3145 3144 3144 3142 3140 3142 3143 3143 3142 3142 3142 3142 3142 3142 3142 3142 3142 3141 3141 3142 3141 3141
3165 3166 3166 3167 3169 3170 3171 3172 3172 3173 3174 3175 3176 3177 3177 3177 3176 3176 3176 3175 3174 3173 3172 3171 3170 3169 3167 3166 3165 3164 3163 3162 3161 3160 3158 3157 3156 3156 3154 3153 3153 3152 3152 3151 3150 3150 3149 3149 3148 3148 3148 3147 3147 3146 3146 3146 3146 3146 3145 3145 3145 3145 3145 3144 3143 3142 3141 3139 3141 3142 3141 3141 3141 3141 3141 3140 3140 3140 3140 3140 3140 3140 3140 3140 3139